Location: Krasnoyarskiy Pitomnik
(51.1333°N, 71.6167°E)
Time: 04:51:56
(UTC+00:00)

Transit 4A - Pass Details

Date: 13 April 2024
Orbit: 871 x 971 km, 66.8° (Epoch: 28 May)

Event Time Altitude Azimuth Distance (km) Brightness Sun altitude
Rises 17:48:17 0° 321° (NW) 3,475 12.1 -26.7°
Reaches altitude 10° 17:50:46 10° 322° (NW) 2,530 11.1 -26.8°
Maximum altitude 17:56:37 87° 234° (SW) 881 7.6 -27.2°
Enters shadow 17:56:53 82° 167° (SSE) 888 7.6 -27.2°
